Main page
METAR-TAF:

METAR-TAF

Airports :

RAF Kinloss

Kinloss, Scotland

latitude: 57-39N, longitude: 003-34W, elevation: 7 m

Current weather observation

The report was made 56 minutes ago, at 15:50 UTC
Wind 10 kt from the East/Northeast
Temperature 5°C
Humidity 93%
Pressure 1024 hPa
Visibility 10 km or more
light rain

METAR: EGQK 201550Z AUTO 06010KT 9999 -RA BKN027/// 05/04 Q1024

Time: 16:46 (16:46 UTC)


TAF: missing

Weather observations and forecasts of more than 4000 airports (METAR and TAF reports).

The available stations are represented by yellow and red dots on the map.

Hover mouse over dot to see the name of the station.

Then click to see weather observations and forecasts.

To change the map : click on the green buttons with a black cross to zoom in, on the green button with a dash to zoom out, or on the green arrows for adjacent maps.


METAR-TAF: